Back to catalog

STARLINK-2413

AliveCommunicationsVLEO
NORAD 47827·PAYLOAD·🇺🇸 United States

Launched Mar 11, 2021 from Cape Canaveral Space Force Station

Loading…

Next Passes (next 24 hours)

TLE

FreshSource: CelesTrak SupGP

Epoch: Sep 14, 2026, 20:15 UTC

1 47827C 21018AS  26257.84423611  .00010177  00000+0  32742-3 0  2574
2 47827  53.1584  82.3136 0001294  74.2864 235.3183 15.31682479    18

Track STARLINK-2413 in real time with AllMySat

Download on the App Store